[[{"header":{"parameterUnit":"m.s-1","parameterCategory":1,"la1":30.2991,"la2":30.254,"lo1":-89.0895,"lo2":-89.0444,"dy":0.0017,"dx":0.0017,"nx":28,"ny":28,"refTime":"2025-09-16T21:00:00:Z","depth":0,"parameterNumber":2,"parameterNumberName":"U-component_of_WINDS"},"data":[0,0,0,0,0,0,0,0,0,0,0,0,0,0,0,0,0,0,0,0,0,0,0,0,0,0,0,0,0,0,0,0,0,0,0,0,0,0,0,0,0,0,0,0,0,0,0,0,0,0,0,0,0,0,0,0,0,0,-0.8036,-0.8035,0,-0.7948,-0.7947,-0.7946,-0.7888,-0.7888,-0.7887,-0.7887,-0.7796,-0.7794,-0.7792,0,0,0,0,0,0,0,0,0,0,0,0,0,-0.8156,-0.8155,-0.8036,-0.8035,-0.8034,-0.7948,-0.7947,-0.7946,-0.7888,-0.7888,-0.7887,-0.7887,-0.7797,-0.7795,-0.7792,0,0,0,0,0,0,0,0,0,0,0,0,0,-0.809,-0.8154,-0.8036,-0.7995,-0.799,-0.7948,-0.7947,-0.7945,-0.7888,-0.7888,-0.7887,-0.7886,-0.7798,-0.7795,-0.7792,-0.7784,0,0,-0.7782,-0.7781,0,0,0,0,0,0,0,0,-0.8094,-0.8086,-0.8002,-0.7998,-0.7993,-0.7928,-0.7956,-0.7891,-0.7888,-0.7927,-0.7887,-0.7886,-0.7841,-0.7834,-0.7819,-0.778,-0.7776,-0.7782,-0.778,-0.7779,-0.7778,0,0,0,0,0,0,0,-0.8098,-0.8089,-0.8001,-0.8001,-0.7995,-0.7981,-0.7971,-0.7944,-0.7888,-0.7924,-0.7919,-0.7909,-0.7838,-0.7822,-0.7816,-0.7775,-0.7782,-0.7779,-0.7778,-0.7776,-0.7728,-0.7728,0,0,0,0,0,0,-0.8109,-0.8093,-0.8004,-0.7999,-0.8043,-0.798,-0.7968,-0.795,-0.7888,-0.7878,-0.791,-0.7907,-0.7827,-0.782,-0.7813,-0.7801,-0.7779,-0.7776,-0.7774,-0.7727,-0.7728,-0.7729,0,0,0,0,0,0,-0.8112,-0.8102,-0.8008,-0.8045,-0.8032,-0.7978,-0.7958,-0.7948,-0.7932,-0.7878,-0.7868,-0.7904,-0.7827,-0.7817,-0.7792,-0.7797,-0.7775,-0.7772,-0.7727,-0.7727,-0.7728,-0.7778,0,0,0,0,0,0,-0.8116,-0.8103,-0.8099,-0.8045,-0.803,-0.7988,-0.7958,-0.7947,-0.7927,-0.7922,-0.7869,-0.786,-0.7826,-0.7797,-0.7789,-0.7793,-0.7769,-0.7726,-0.7727,-0.7728,-0.7776,-0.778,-0.7784,0,0,0,0,0,-0.812,-0.8116,-0.8099,-0.8089,-0.8024,-0.7989,-0.798,-0.794,-0.7927,-0.7923,-0.7889,-0.7862,-0.7798,-0.7795,-0.7786,-0.7788,-0.7725,-0.7727,-0.7728,-0.7774,-0.7779,-0.7784,0,0,0,0,0,0,-0.8172,-0.8108,-0.8089,-0.8067,-0.8034,-0.7979,-0.7972,-0.7947,-0.7917,-0.7914,-0.7866,-0.7854,-0.7835,-0.7809,-0.7807,-0.7779,-0.7759,-0.7758,-0.7797,-0.7802,-0.7806,-0.7813,-0.7767,0,0,0,0,0,-0.8181,-0.8157,-0.8103,-0.8089,-0.8074,-0.8026,-0.8009,-0.7982,-0.7945,-0.7931,-0.7895,-0.7861,-0.7833,-0.7816,-0.7787,-0.7772,-0.776,-0.7769,-0.7774,-0.7777,-0.7778,-0.777,-0.7773,-0.7733,-0.7733,-0.7733,0,0,-0.8199,-0.8161,-0.8149,-0.8099,-0.807,-0.8047,-0.8015,-0.7991,-0.7975,-0.7927,-0.7902,-0.7875,-0.7834,-0.7814,-0.7803,-0.7792,-0.7787,-0.7779,-0.7783,-0.778,-0.7771,-0.7775,-0.7779,-0.7734,-0.7733,-0.7733,0,0,-0.822,-0.8189,-0.8175,-0.8147,-0.8104,-0.8073,-0.807,-0.8019,-0.7999,-0.7973,-0.7938,-0.7917,-0.787,-0.7843,-0.7823,-0.7838,-0.7812,-0.783,-0.7853,-0.7846,-0.7849,-0.7851,-0.7858,-0.7861,-0.783,-0.783,-0.783,0,-0.8248,-0.8212,-0.8171,-0.815,-0.813,-0.8087,-0.8073,-0.8048,-0.7998,-0.7985,-0.7973,-0.7915,-0.7884,-0.7858,-0.7862,-0.7847,-0.7843,-0.7835,-0.7852,-0.7854,-0.7856,-0.7862,-0.7864,-0.7833,-0.7832,-0.7832,-0.7832,0,-0.825,-0.8226,-0.822,-0.8173,-0.8152,-0.8135,-0.8092,-0.8075,-0.8051,-0.8021,-0.7997,-0.7958,-0.7923,-0.7914,-0.7889,-0.7886,-0.788,-0.7861,-0.7839,-0.7863,-0.7868,-0.787,-0.7836,-0.7835,-0.7835,-0.7834,0,0,-0.83,-0.8232,-0.8231,-0.821,-0.816,-0.8141,-0.8124,-0.8089,-0.8077,-0.8044,-0.8029,-0.7991,-0.7974,-0.7951,-0.7923,-0.7916,-0.7933,-0.7897,-0.7896,-0.7907,-0.7929,-0.7945,-0.7948,-0.7915,-0.7916,-0.7916,-0.7933,0,-0.8315,-0.828,-0.8243,-0.8221,-0.82,-0.816,-0.8144,-0.8113,-0.8086,-0.8064,-0.8034,-0.8009,-0.7986,-0.7973,-0.7965,-0.7932,-0.7937,-0.7931,-0.7902,-0.7901,-0.7914,-0.795,-0.7966,-0.7984,-0.7934,-0.7935,-0.7935,0,-0.8327,-0.8297,-0.8274,-0.8229,-0.8218,-0.8205,-0.8172,-0.8151,-0.8115,-0.8096,-0.8073,-0.8043,-0.8023,-0.8005,-0.7978,-0.7975,-0.7961,-0.7944,-0.7944,-0.794,-0.792,-0.7949,-0.7989,-0.7992,-0.7937,-0.7937,-0.7937,0,-0.8368,-0.8322,-0.8303,-0.8286,-0.8232,-0.8224,-0.8202,-0.8165,-0.8148,-0.8119,-0.8107,-0.8076,-0.806,-0.8037,-0.8,-0.799,-0.7979,-0.7956,-0.7963,-0.7964,-0.7962,-0.7963,-0.8002,-0.7952,-0.7952,-0.7952,-0.7952,0,-0.8389,-0.8376,-0.8321,-0.8309,-0.8295,-0.8253,-0.824,-0.8214,-0.8183,-0.8166,-0.8129,-0.8114,-0.8067,-0.8047,-0.8018,-0.8002,-0.7994,-0.7979,-0.7971,-0.7982,-0.7985,-0.7973,-0.7971,-0.7953,-0.7953,-0.7953,-0.7952,0,-0.8432,-0.8394,-0.837,-0.8322,-0.831,-0.8302,-0.826,-0.8248,-0.822,-0.8199,-0.8192,-0.8147,-0.8122,-0.8083,-0.8046,-0.8027,-0.8016,-0.8003,-0.8028,-0.8024,-0.8034,-0.8034,-0.8068,-0.8071,-0.8018,-0.8019,-0.8019,0,-0.8448,-0.8438,-0.8389,-0.8375,-0.8354,-0.8332,-0.8315,-0.8274,-0.8257,-0.8217,-0.821,-0.8182,-0.8158,-0.812,-0.8085,-0.8057,-0.8044,-0.8058,-0.8039,-0.8052,-0.8046,-0.8047,-0.8047,-0.8062,-0.8063,-0.8063,-0.8064,0,-0.8481,-0.8464,-0.8439,-0.841,-0.839,-0.8364,-0.8337,-0.8328,-0.8281,-0.8265,-0.8239,-0.822,-0.8184,-0.8157,-0.8125,-0.8102,-0.8076,-0.807,-0.807,-0.8082,-0.8098,-0.8091,-0.8041,-0.8069,-0.8069,-0.8068,-0.8068,-0.8068,-0.8512,-0.8502,-0.8467,-0.8442,-0.8417,-0.8393,-0.838,-0.8351,-0.8328,-0.8295,-0.8273,-0.8249,-0.8216,-0.817,-0.8149,-0.8131,-0.8119,-0.8119,-0.8119,-0.812,-0.8125,-0.81,-0.8124,-0.8124,-0.8124,-0.8124,-0.8124,0,-0.8545,-0.8521,-0.8498,-0.8462,-0.8443,-0.842,-0.8389,-0.8375,-0.8355,-0.8326,-0.8303,-0.8275,-0.825,-0.8213,-0.8185,-0.8178,-0.8166,-0.8172,-0.8173,-0.8168,-0.8136,-0.8139,-0.8183,-0.8183,-0.8183,-0.8183,-0.8183,-0.8183,-0.856,-0.8542,-0.8521,-0.8492,-0.8468,-0.8444,-0.8429,-0.8407,-0.8384,-0.8354,-0.8333,-0.831,-0.8279,-0.8249,-0.8225,-0.8215,-0.8208,-0.8218,-0.8205,-0.8176,-0.817,-0.8165,-0.8168,-0.8217,-0.8217,-0.8239,-0.8239,-0.8239]},{"header":{"parameterUnit":"m.s-1","parameterCategory":1,"la1":30.2991,"la2":30.254,"lo1":-89.0895,"lo2":-89.0444,"dy":0.0017,"dx":0.0017,"nx":28,"ny":28,"refTime":"2025-09-16T21:00:00:Z","depth":0,"parameterNumber":3,"parameterNumberName":"V-component_of_WINDS"},"data":[0,0,0,0,0,0,0,0,0,0,0,0,0,0,0,0,0,0,0,0,0,0,0,0,0,0,0,0,0,0,0,0,0,0,0,0,0,0,0,0,0,0,0,0,0,0,0,0,0,0,0,0,0,0,0,0,0,0,3.3372,3.3371,0,3.3359,3.3359,3.3358,3.3402,3.3403,3.3405,3.3406,3.3387,3.3385,3.3383,0,0,0,0,0,0,0,0,0,0,0,0,0,3.3428,3.3427,3.3372,3.3371,3.3371,3.3359,3.3359,3.3358,3.3402,3.3403,3.3405,3.3406,3.3387,3.3385,3.3383,0,0,0,0,0,0,0,0,0,0,0,0,0,3.3408,3.3427,3.3372,3.3392,3.3393,3.3359,3.3359,3.3358,3.3401,3.3403,3.3405,3.3407,3.3388,3.3385,3.3383,3.3327,0,0,3.3375,3.3374,0,0,0,0,0,0,0,0,3.3409,3.3406,3.3389,3.339,3.3392,3.3384,3.3372,3.3347,3.3401,3.3398,3.3406,3.3408,3.3384,3.3382,3.3375,3.3326,3.3325,3.3375,3.3373,3.3372,3.3371,0,0,0,0,0,0,0,3.3411,3.3407,3.3366,3.3388,3.339,3.3399,3.3399,3.3367,3.338,3.3398,3.3402,3.34,3.3385,3.3377,3.3374,3.3325,3.3375,3.3372,3.3371,3.337,3.3227,3.3225,0,0,0,0,0,0,3.341,3.3408,3.3367,3.3366,3.3406,3.3397,3.3396,3.3384,3.338,3.3382,3.3398,3.3402,3.3381,3.3377,3.3374,3.3306,3.3372,3.3369,3.3368,3.3229,3.3227,3.3224,0,0,0,0,0,0,3.3411,3.3406,3.3367,3.3388,3.3383,3.3394,3.338,3.3383,3.3375,3.338,3.3382,3.3388,3.3382,3.3378,3.3338,3.3306,3.3368,3.3366,3.3232,3.3229,3.3225,3.3172,0,0,0,0,0,0,3.3413,3.3406,3.3386,3.3387,3.3382,3.3333,3.3378,3.3381,3.3371,3.3376,3.3371,3.3372,3.3383,3.3342,3.3335,3.3304,3.3364,3.3235,3.323,3.3227,3.3176,3.3167,3.3159,0,0,0,0,0,3.3414,3.3371,3.3385,3.338,3.3358,3.3331,3.3328,3.3344,3.3369,3.3348,3.3351,3.3372,3.3312,3.3337,3.3331,3.3298,3.3237,3.3232,3.3227,3.318,3.3169,3.3159,0,0,0,0,0,0,3.3364,3.3371,3.3387,3.3343,3.3336,3.3339,3.3313,3.3331,3.3316,3.3321,3.3339,3.3338,3.3294,3.3292,3.3321,3.3242,3.3278,3.3271,3.3245,3.3234,3.3225,3.3226,3.3362,0,0,0,0,0,3.3348,3.3328,3.3334,3.3294,3.3291,3.3302,3.3291,3.3304,3.3297,3.3294,3.3294,3.3285,3.3264,3.3249,3.323,3.3177,3.3175,3.3151,3.3142,3.3135,3.3128,3.3098,3.3087,3.3208,3.3208,3.3208,0,0,3.3314,3.3315,3.3301,3.3284,3.3281,3.3257,3.3299,3.3273,3.3255,3.3289,3.3252,3.3252,3.3243,3.3196,3.3175,3.3193,3.3095,3.3129,3.3123,3.312,3.3092,3.308,3.307,3.3205,3.3205,3.3206,0,0,3.3239,3.324,3.3206,3.3202,3.3197,3.3205,3.3196,3.3196,3.3198,3.3161,3.3186,3.3164,3.3128,3.312,3.3111,3.3034,3.3052,3.3027,3.2981,3.2951,3.2942,3.2933,3.2903,3.2892,3.3021,3.3021,3.3021,0,3.3197,3.3164,3.3185,3.3157,3.3148,3.318,3.3145,3.3139,3.3127,3.3119,3.314,3.3095,3.3091,3.3042,3.3023,3.3016,3.3005,3.3027,3.2942,3.2933,3.2926,3.2897,3.2886,3.3018,3.3018,3.3019,3.3019,0,3.3111,3.3088,3.3061,3.3051,3.3039,3.3007,3.3021,3.3006,3.302,3.3025,3.2986,3.2983,3.2963,3.2953,3.2966,3.2905,3.2916,3.2939,3.2975,3.2911,3.2884,3.2874,3.3013,3.3014,3.3015,3.3016,0,0,3.3003,3.3005,3.2994,3.2989,3.2986,3.2968,3.2937,3.2919,3.2905,3.2896,3.2869,3.2838,3.2859,3.2849,3.2861,3.2835,3.2771,3.2861,3.2861,3.2842,3.2701,3.2682,3.2669,3.2785,3.2783,3.2781,3.2701,0,3.2928,3.2877,3.2894,3.2841,3.2819,3.2849,3.2822,3.2816,3.282,3.28,3.2804,3.2781,3.2812,3.2806,3.2782,3.2784,3.2743,3.2791,3.2757,3.2755,3.2755,3.2656,3.2636,3.256,3.2691,3.269,3.2688,0,3.2833,3.2822,3.2767,3.2767,3.2758,3.2733,3.2718,3.27,3.2693,3.2698,3.2687,3.2704,3.2672,3.271,3.2663,3.2695,3.2683,3.2682,3.2679,3.2674,3.2716,3.2646,3.2537,3.2524,3.2673,3.2674,3.2675,0,3.2756,3.2727,3.269,3.2685,3.2685,3.2667,3.2666,3.2661,3.2649,3.2636,3.2627,3.261,3.2599,3.2584,3.2595,3.2622,3.2546,3.2585,3.2546,3.2546,3.2527,3.2527,3.2411,3.2523,3.2523,3.2523,3.2523,0,3.2669,3.2634,3.2656,3.2633,3.2593,3.2613,3.2573,3.2575,3.2571,3.2547,3.2573,3.2549,3.2567,3.2544,3.2553,3.2512,3.2508,3.2508,3.2511,3.2505,3.2504,3.2495,3.2499,3.252,3.2521,3.2521,3.2522,0,3.2576,3.259,3.2551,3.2555,3.2555,3.2525,3.2527,3.2504,3.2511,3.2481,3.2474,3.2484,3.2459,3.247,3.2443,3.2448,3.2395,3.2405,3.2397,3.2399,3.2358,3.2361,3.223,3.2213,3.2338,3.2337,3.2336,0,3.2518,3.2492,3.2493,3.248,3.2477,3.2456,3.2444,3.2463,3.2449,3.2439,3.2417,3.2395,3.2378,3.2336,3.2339,3.2318,3.2326,3.2282,3.2323,3.2317,3.2322,3.2323,3.2319,3.2272,3.2271,3.227,3.2269,0,3.2413,3.2422,3.2405,3.239,3.2376,3.2365,3.2356,3.2343,3.2361,3.2344,3.232,3.2307,3.228,3.2256,3.2238,3.2234,3.2253,3.2257,3.2246,3.2238,3.2233,3.2233,3.2372,3.2259,3.226,3.226,3.2261,3.2261,3.2334,3.2312,3.2309,3.2289,3.2285,3.2275,3.2254,3.2259,3.224,3.222,3.2232,3.2203,3.2196,3.2173,3.2167,3.2143,3.216,3.2145,3.2141,3.2136,3.213,3.224,3.214,3.214,3.214,3.214,3.2141,0,3.2229,3.2229,3.2211,3.2198,3.2181,3.2204,3.2195,3.2179,3.2154,3.2146,3.213,3.21,3.2078,3.2079,3.2058,3.2038,3.2046,3.2031,3.2031,3.203,3.2117,3.2127,3.2025,3.2025,3.2025,3.2025,3.2025,3.2025,3.2172,3.2134,3.2142,3.2102,3.2102,3.2075,3.2067,3.2058,3.2052,3.2019,3.2001,3.2003,3.1999,3.1977,3.1956,3.1957,3.1947,3.1928,3.1932,3.2013,3.2024,3.2035,3.2044,3.1927,3.1926,3.1847,3.1846,3.1845]}]]